TimeEST,TemperatureF,Dew PointF,Humidity,Sea Level PressureIn,VisibilityMPH,Wind Direction,Wind SpeedMPH,Gust SpeedMPH,PrecipitationIn,Events,Conditions,WindDirDegrees,DateUTC
12:53 AM,32.0,23.0,69,29.94,10.0,West,3.5,-,N/A,,Clear,270,2013-02-13 05:53:00
1:53 AM,30.0,21.9,72,29.96,10.0,Calm,Calm,-,N/A,,Clear,0,2013-02-13 06:53:00
2:53 AM,28.0,21.9,78,29.93,10.0,North,4.6,-,N/A,,Clear,360,2013-02-13 07:53:00
3:53 AM,27.0,21.0,78,29.90,10.0,North,3.5,-,N/A,,Clear,360,2013-02-13 08:53:00
4:53 AM,28.9,21.0,72,29.91,10.0,North,5.8,-,N/A,,Clear,360,2013-02-13 09:53:00
5:53 AM,25.0,21.0,85,29.89,9.0,Calm,Calm,-,N/A,,Clear,0,2013-02-13 10:53:00
6:53 AM,27.0,21.0,78,29.89,10.0,Calm,Calm,-,N/A,,Clear,0,2013-02-13 11:53:00
7:53 AM,28.9,23.0,78,29.89,8.0,Calm,Calm,-,N/A,,Clear,0,2013-02-13 12:53:00
8:53 AM,33.1,25.0,72,29.88,9.0,Calm,Calm,-,N/A,,Clear,0,2013-02-13 13:53:00
9:53 AM,37.0,24.1,59,29.88,10.0,SE,4.6,-,N/A,,Clear,140,2013-02-13 14:53:00
10:53 AM,37.9,24.1,57,29.89,10.0,Variable,5.8,-,N/A,,Overcast,0,2013-02-13 15:53:00
11:53 AM,39.9,24.1,53,29.84,10.0,Variable,4.6,-,N/A,,Overcast,0,2013-02-13 16:53:00
12:53 PM,43.0,27.0,53,29.78,10.0,ESE,5.8,-,N/A,,Unknown,120,2013-02-13 17:53:00
1:53 PM,42.1,26.1,53,29.75,10.0,ESE,4.6,-,N/A,,Unknown,110,2013-02-13 18:53:00
2:53 PM,42.1,26.1,53,29.75,10.0,SSE,3.5,-,N/A,,Clear,160,2013-02-13 19:53:00
3:53 PM,43.0,27.0,53,29.71,10.0,ENE,10.4,-,N/A,,Clear,70,2013-02-13 20:53:00
4:53 PM,41.0,25.0,53,29.68,10.0,NE,6.9,-,N/A,,Overcast,40,2013-02-13 21:53:00
5:53 PM,39.9,26.1,58,29.68,10.0,East,8.1,-,N/A,,Overcast,80,2013-02-13 22:53:00
6:53 PM,37.9,28.9,70,29.69,9.0,ESE,5.8,-,0.00,Rain,Light Rain,120,2013-02-13 23:53:00
7:26 PM,37.4,30.2,75,29.71,7.0,Calm,Calm,-,0.00,Rain,Light Rain,0,2013-02-14 00:26:00
7:53 PM,36.0,30.9,82,29.69,5.0,Calm,Calm,-,0.01,Snow,Light Snow,0,2013-02-14 00:53:00
8:26 PM,33.8,30.2,87,29.72,2.5,Calm,Calm,-,0.01,Snow,Light Snow,0,2013-02-14 01:26:00
8:33 PM,33.8,32.0,93,29.71,1.2,Calm,Calm,-,0.02,Snow,Light Snow,0,2013-02-14 01:33:00
8:46 PM,33.8,30.2,87,29.70,0.8,Calm,Calm,-,0.02,Snow,Light Snow,0,2013-02-14 01:46:00
8:53 PM,33.1,30.9,92,29.69,1.0,Calm,Calm,-,0.02,Snow,Light Snow,0,2013-02-14 01:53:00
9:01 PM,33.8,30.2,87,29.71,0.8,North,3.5,-,0.00,Snow,Light Snow,10,2013-02-14 02:01:00
9:08 PM,33.8,30.2,87,29.70,0.8,North,3.5,-,0.00,Snow,Light Snow,10,2013-02-14 02:08:00
9:44 PM,33.8,30.2,87,29.70,1.0,NNE,5.8,-,0.01,Snow,Light Snow,20,2013-02-14 02:44:00
9:53 PM,33.1,30.9,92,29.69,1.0,North,5.8,-,0.01,Snow,Light Snow,10,2013-02-14 02:53:00
10:22 PM,33.8,30.2,87,29.70,1.0,North,4.6,-,0.00,Snow,Light Snow,10,2013-02-14 03:22:00
10:33 PM,33.8,30.2,87,29.70,1.5,North,5.8,-,0.01,Snow,Light Snow,10,2013-02-14 03:33:00
10:53 PM,33.1,30.9,92,29.69,1.5,North,5.8,-,0.01,Snow,Light Snow,360,2013-02-14 03:53:00
11:08 PM,33.8,30.2,87,29.70,2.0,North,5.8,-,0.01,Snow,Light Snow,360,2013-02-14 04:08:00
11:21 PM,33.8,30.2,87,29.71,3.0,North,5.8,-,0.01,Snow,Light Snow,360,2013-02-14 04:21:00
11:33 PM,33.8,30.2,87,29.71,2.0,North,5.8,-,0.02,Snow,Light Snow,360,2013-02-14 04:33:00
11:53 PM,33.1,30.9,92,29.70,2.5,North,4.6,-,0.02,Snow,Light Snow,360,2013-02-14 04:53:00